OBJECT F, 65555

Orbit data source: Space-Track

You're viewing an Uncataloged Satellite

Recently launched and/or uncataloged satellites may have evolving metadata. Metadata may include but not limited to: Owner, Maufacturer, Bus, Motor, and Mission.

OBJECT F, 65555 is a satellite owned by GeeSpace (CN) in LEO that was launched on Mon, 08 Sep 2025 UTC via a JIELONG-3 launch vehicle from the Yellow Sea Launch Area, China (YSLA). Unknown objects in Earth's orbit typically refer to objects detected orbiting the Earth but have not yet been identified or cataloged. These objects could be anything from previously untracked satellites, spent rocket stages, debris from satellite collisions, or even natural meteoroids temporarily captured by Earth's gravity.

Loading next visibility...
Identifier
65555, 2025-201F
Orbit
LEO
Country
Flag of CNCN / PRC
Related business
None
Manufacturer
Taizhou Xingkong
Mission
Operational spacecraft
Bus & Motor
GEESAT1, Unknown motor
Mass
130 kg wet, 130 kg dry
Launch date (UTC)
2025-09-08 (1 week ago)
Launch vehicle
JIELONG-3
Launch site
Yellow Sea Launch Area, China (YSLA)
Object type
Unknown
Shape & HBR
Unknown
Radar Cross Section
Medium (>0.1 m² and <1 m²)

Expand to show TLE details & history
Last TLE update: 2 days ago

TLE from 2 days ago
0 OBJECT F
1 65555U 25201F   25258.31169488  .00000096  00000-0  36862-4 0  9992
2 65555  49.9883 234.8989 0009492 308.7558  51.2532 14.86556820   960
Epoch: 2025-09-15T07:28Z
TLE epoch observation values (Epoch: 2025-09-15T07:28:50.437Z)
Latitude
-0.00007°
Longitude
128.17052°
Altitude
605.1 km
Speed
7.56 km/s
True Right ascension
15h 39m 35s
True Declination
0° 00' 00"
Sunlit
Object was in daylight at epoch
Visualization orbit readout
Latitude
Unknown
Longitude
Unknown
Altitude
Unknown
Speed
Unknown
Apparent Right ascension
Unknown
Apparent Declination
Unknown
Sunlit
N/A
Visualization observer readout
Local Sidereal Time
02:55:37
Azimuth
Unknown
Elevation
Unknown
Doppler factor
Unknown
Orbital elements
Apogee altitude
616.097 km
Perigee altitude
602.832 km
Semi-major axis
6,987.602 km
Eccentricity
0.00095
Inclination
49.9883°
RAAN
234.8989°
Arg. of periapsis
308.7558°
True anomaly
51.3381°
Mean anomaly
51.2532°
Eccentric anomaly
51.29564°
Mean motion
3.71579 °/min
Orbital period
96.88 mins
BSTAR
0.000036862
Loading maneuver chart data...
Computing Atmospheric mass density...
Loading historical data...
Loading historical data...
Loading historical data...
Loading historical data...
Loading historical data...
Loading historical data...
Loading historical data...

Documentation

Showing up to 5 results
|